Location: Aufkirchen
(47.9603°N, 11.3653°E)
Time: 10:21:24
(UTC+01:00)

Tiros 1 - Pass Details

Date: 29 November 2020
Orbit: 630 x 663 km, 48.4° (Epoch: 21 January)

Event Time Altitude Azimuth Distance (km) Brightness Sun altitude
Rises 14:29:55 0° 202° (SSW) 2,980 12.3 13.0°
Reaches altitude 10° 14:32:48 10° 185° (S) 2,072 11.0 12.8°
Maximum altitude 14:36:12 20° 139° (SE) 1,533 9.3 12.4°
Drops below altitude 10° 14:39:38 10° 94° (E) 2,075 9.5 12.1°
Sets 14:42:30 0° 77° (ENE) 2,987 10.1 11.8°
